[[{"header":{"parameterUnit":"m.s-1","parameterCategory":1,"la1":30.2992,"la2":30.254,"lo1":-89.0895,"lo2":-89.0443,"dy":0.0025,"dx":0.0025,"nx":19,"ny":19,"refTime":"2026-05-01T21:00:00:Z","depth":0,"parameterNumber":2,"parameterNumberName":"U-component_of_WINDS"},"data":[0,0,0,0.552,0.552,0.5545,0.5545,0.5569,0.5569,0,0,0,0,0,0,0,0,0,0,0,0.5507,0.5507,0.552,0.552,0.5545,0.5545,0.5569,0.5569,0,0,0,0,0,0,0,0,0,0,0,0.5507,0.5507,0.5507,0.552,0.5545,0.5545,0.5569,0.5553,0,0,0,0,0,0,0,0,0,0,0.553,0.5513,0.5507,0.5507,0.552,0.5545,0.5546,0.5553,0.5554,0.5554,0,0.5553,0,0.5561,0.557,0.5571,0,0,0,0.5524,0.5511,0.5523,0.5507,0.552,0.5545,0.5535,0.5554,0.5555,0.5556,0.5553,0.5554,0.5562,0.5571,0.5571,0.5557,0.5557,0,0,0.5523,0.5508,0.5522,0.5524,0.552,0.5534,0.5536,0.5555,0.555,0.5553,0.5555,0.5562,0.5571,0.5571,0.5558,0.5557,0,0,0,0.5516,0.5507,0.5519,0.5523,0.5528,0.5535,0.5537,0.5549,0.5554,0.5555,0.5562,0.5571,0.5571,0.5558,0.5557,0.5531,0,0,0,0.5515,0.5503,0.5518,0.5509,0.5528,0.5539,0.5531,0.5553,0.5556,0.5562,0.5571,0.5571,0.5558,0.5558,0.5532,0.552,0,0,0,0.5507,0.5502,0.5504,0.5508,0.5519,0.5539,0.5545,0.5554,0.556,0.5571,0.5571,0.5558,0.5558,0.5533,0.5522,0.5512,0,0,0,0.5494,0.548,0.5503,0.5491,0.5518,0.5523,0.5545,0.5549,0.5555,0.5571,0.5558,0.5558,0.5534,0.5523,0.5513,0.55,0.5493,0,0,0.5468,0.5476,0.547,0.5492,0.5488,0.552,0.5513,0.5532,0.5546,0.5553,0.5553,0.5532,0.5522,0.5512,0.5464,0.5459,0,0,0,0.5457,0.5452,0.5455,0.546,0.5475,0.5486,0.5508,0.5515,0.5522,0.5546,0.5526,0.5521,0.5516,0.551,0.5506,0.5502,0.5555,0.5555,0.5555,0.5399,0.5419,0.541,0.5433,0.5438,0.5461,0.5467,0.5481,0.5499,0.5494,0.5495,0.5464,0.5457,0.5453,0.5449,0.5491,0.5491,0.5491,0.5491,0.5362,0.5358,0.5384,0.5385,0.5406,0.5407,0.5429,0.5442,0.5446,0.5464,0.546,0.5477,0.5447,0.5444,0.5489,0.549,0.549,0.549,0.549,0.5325,0.5327,0.5337,0.5347,0.5353,0.5377,0.538,0.54,0.5418,0.5414,0.5418,0.5419,0.5421,0.5415,0.5415,0.5415,0.5415,0.5415,0.5415,0.5282,0.5294,0.5294,0.531,0.5316,0.5327,0.5352,0.5359,0.5372,0.5386,0.5386,0.5404,0.5441,0.5449,0.5413,0.5413,0.5414,0.5414,0.5414,0.5235,0.5249,0.5249,0.5255,0.5276,0.5281,0.5307,0.5319,0.5328,0.5329,0.5349,0.5374,0.5383,0.5387,0.5393,0.5345,0.5345,0.5345,0.5345,0.5203,0.521,0.5214,0.5224,0.5235,0.5259,0.5259,0.5278,0.5301,0.5308,0.5318,0.533,0.5333,0.534,0.5345,0.5351,0.5294,0.5294,0.5294,0.5175,0.5184,0.5179,0.5202,0.522,0.5235,0.5235,0.5245,0.5274,0.5292,0.5314,0.5316,0.5334,0.5339,0.5355,0.5362,0.5374,0,0]},{"header":{"parameterUnit":"m.s-1","parameterCategory":1,"la1":30.2992,"la2":30.254,"lo1":-89.0895,"lo2":-89.0443,"dy":0.0025,"dx":0.0025,"nx":19,"ny":19,"refTime":"2026-05-01T21:00:00:Z","depth":0,"parameterNumber":3,"parameterNumberName":"V-component_of_WINDS"},"data":[0,0,0,-7.3298,-7.33,-7.3403,-7.3403,-7.3539,-7.354,0,0,0,0,0,0,0,0,0,0,0,-7.3272,-7.3273,-7.3297,-7.33,-7.3403,-7.3403,-7.3538,-7.354,0,0,0,0,0,0,0,0,0,0,0,-7.3271,-7.3273,-7.3274,-7.3301,-7.3403,-7.3403,-7.3538,-7.3458,0,0,0,0,0,0,0,0,0,0,-7.3358,-7.3339,-7.3272,-7.3274,-7.3301,-7.3403,-7.3403,-7.3454,-7.3463,-7.3494,0,-7.3526,0,-7.3535,-7.3549,-7.355,0,0,0,-7.3296,-7.3332,-7.3356,-7.3274,-7.3302,-7.3403,-7.3355,-7.3459,-7.3469,-7.3506,-7.3527,-7.3532,-7.3537,-7.355,-7.3551,-7.3752,-7.3753,0,0,-7.329,-7.3292,-7.3349,-7.3362,-7.335,-7.3352,-7.3358,-7.3465,-7.3487,-7.3528,-7.3535,-7.354,-7.3551,-7.3552,-7.3751,-7.3752,0,0,0,-7.3277,-7.3288,-7.3309,-7.3357,-7.3375,-7.3355,-7.3363,-7.3483,-7.349,-7.3537,-7.3541,-7.3552,-7.3554,-7.3749,-7.3751,-7.3811,0,0,0,-7.3273,-7.328,-7.3307,-7.3309,-7.3374,-7.3431,-7.3377,-7.3482,-7.3494,-7.3541,-7.3552,-7.3555,-7.3748,-7.375,-7.3807,-7.3838,0,0,0,-7.3263,-7.3279,-7.3296,-7.3309,-7.3354,-7.3429,-7.3442,-7.3485,-7.3497,-7.355,-7.3556,-7.3747,-7.375,-7.3803,-7.3832,-7.3892,0,0,0,-7.3253,-7.3345,-7.3297,-7.3403,-7.3353,-7.3466,-7.3441,-7.3525,-7.3577,-7.3553,-7.3748,-7.3751,-7.3801,-7.3828,-7.3888,-7.3944,-7.3967,0,0,-7.3371,-7.336,-7.3422,-7.3381,-7.3505,-7.345,-7.3581,-7.3625,-7.3627,-7.3709,-7.3714,-7.3808,-7.3831,-7.3892,-7.4099,-7.4117,0,0,0,-7.346,-7.3504,-7.3537,-7.3589,-7.3627,-7.3662,-7.3687,-7.3704,-7.3774,-7.3671,-7.3846,-7.386,-7.3895,-7.3921,-7.3937,-7.3967,-7.3763,-7.3763,-7.3763,-7.3628,-7.3629,-7.3731,-7.3745,-7.3795,-7.3821,-7.3861,-7.3888,-7.387,-7.3912,-7.3936,-7.4063,-7.4094,-7.4106,-7.4137,-7.3966,-7.3966,-7.3966,-7.3966,-7.3801,-7.3865,-7.3843,-7.3935,-7.3934,-7.401,-7.4039,-7.4025,-7.4095,-7.4044,-7.4074,-7.4018,-7.4126,-7.4153,-7.3971,-7.397,-7.397,-7.3969,-7.3969,-7.3912,-7.3942,-7.3963,-7.404,-7.4098,-7.4107,-7.4177,-7.4172,-7.4168,-7.4199,-7.4224,-7.4223,-7.4222,-7.4212,-7.4212,-7.4213,-7.4213,-7.4213,-7.4214,-7.4017,-7.404,-7.41,-7.4151,-7.4185,-7.4228,-7.4257,-7.4289,-7.4323,-7.4314,-7.4315,-7.4293,-7.4137,-7.4098,-7.422,-7.4219,-7.4218,-7.4218,-7.4217,-7.4192,-7.4153,-7.4246,-7.4281,-7.4341,-7.4399,-7.4394,-7.446,-7.4486,-7.452,-7.4493,-7.4379,-7.4366,-7.4353,-7.4321,-7.4493,-7.4493,-7.4493,-7.4493,-7.4285,-7.428,-7.4375,-7.4431,-7.4484,-7.449,-7.4594,-7.4617,-7.4634,-7.465,-7.4625,-7.4581,-7.4568,-7.4563,-7.4546,-7.4516,-7.4734,-7.4734,-7.4734,-7.4393,-7.4393,-7.4483,-7.4503,-7.455,-7.459,-7.4688,-7.475,-7.4761,-7.4744,-7.4662,-7.4652,-7.4582,-7.4559,-7.4539,-7.4512,-7.4456,0,0]}]]